When you browse on this site, cookies collect data to enhance your experience and personalize the content and advertising you see.
Visit our Privacy Policy to learn more. By continuing to use the site, you agree to this use of cookies and data.
  • In Austria
  • List of Countries
  • For 7 days
  • Water Temperature
  • Weather Map
  • News
  • Weather Widgets
  • user-avatar
    Login

    Hourly Weather Barinas

    Today, 21 January, Tuesday

    Time Temperature Precipitation Wind Pressure Humidity
    00:00 +27°C° 0 mm 1 mps 743 mmHg 74%
    01:00 +27°C° 0 mm 1 mps 743 mmHg 73%
    02:00 +27°C° 0 mm 1 mps 742 mmHg 73%
    03:00 +27°C° 0 mm 1 mps 742 mmHg 72%
    04:00 +27°C° 0 mm 1 mps 742 mmHg 72%
    05:00 +27°C° 0 mm 1 mps 742 mmHg 71%
    06:00 +27°C° 0 mm 1 mps 743 mmHg 69%
    07:00 +28°C° 0 mm 1 mps 744 mmHg 68%
    08:00 +28°C° 0 mm 2 mps 744 mmHg 66%
    09:00 +29°C° 0 mm 2 mps 744 mmHg 64%
    10:00 +30°C° 0 mm 3 mps 744 mmHg 61%
    11:00 +31°C° 0 mm 3 mps 743 mmHg 58%
    12:00 +34°C° 0 mm 3 mps 742 mmHg 54%
    13:00 +35°C° 0 mm 3 mps 742 mmHg 50%
    14:00 +34°C° 0 mm 2 mps 741 mmHg 51%
    15:00 +34°C° 0 mm 2 mps 740 mmHg 51%
    16:00 +34°C° 0 mm 2 mps 740 mmHg 52%
    17:00 +32°C° 0 mm 2 mps 740 mmHg 56%
    18:00 +30°C° 0 mm 2 mps 741 mmHg 61%
    19:00 +29°C° 0 mm 2 mps 741 mmHg 66%
    20:00 +29°C° 0 mm 2 mps 741 mmHg 68%
    21:00 +28°C° 0 mm 2 mps 742 mmHg 69%
    22:00 +28°C° 0 mm 2 mps 742 mmHg 71%
    23:00 +28°C° 0 mm 1 mps 742 mmHg 71%

    Tomorrow, 22 January, Wednesday

    Time Temperature Precipitation Wind Pressure Humidity
    00:00 +27°C° 0 mm 1 mps 742 mmHg 70%
    01:00 +27°C° 0 mm 1 mps 741 mmHg 70%
    02:00 +27°C° 0 mm 1 mps 741 mmHg 70%
    03:00 +27°C° 0 mm 1 mps 741 mmHg 70%
    04:00 +26°C° 0 mm 1 mps 741 mmHg 70%
    05:00 +26°C° 0 mm 1 mps 742 mmHg 69%
    06:00 +27°C° 0 mm 1 mps 742 mmHg 69%
    07:00 +27°C° 0 mm 1 mps 742 mmHg 68%
    08:00 +29°C° 0 mm 2 mps 743 mmHg 62%
    09:00 +30°C° 0 mm 2 mps 743 mmHg 56%
    10:00 +33°C° 0 mm 3 mps 744 mmHg 51%
    11:00 +34°C° 0 mm 3 mps 743 mmHg 48%
    12:00 +35°C° 0 mm 3 mps 742 mmHg 46%
    13:00 +36°C° 0 mm 3 mps 741 mmHg 44%
    14:00 +36°C° 0 mm 3 mps 741 mmHg 45%
    15:00 +36°C° 0 mm 3 mps 740 mmHg 45%
    16:00 +36°C° 0 mm 2 mps 739 mmHg 45%
    17:00 +34°C° 0 mm 2 mps 740 mmHg 51%
    18:00 +31°C° 0 mm 2 mps 740 mmHg 56%
    19:00 +30°C° 0 mm 2 mps 740 mmHg 62%
    20:00 +30°C° 0 mm 1 mps 741 mmHg 62%
    21:00 +30°C° 0 mm 1 mps 741 mmHg 63%
    22:00 +29°C° 0 mm 1 mps 742 mmHg 63%
    23:00 +29°C° 0 mm 1 mps 741 mmHg 64%

    Day after tomorrow, 23 January, Thursday

    Time Temperature Precipitation Wind Pressure Humidity
    00:00 +29°C° 0 mm 1 mps 741 mmHg 64%
    01:00 +28°C° 0 mm 1 mps 741 mmHg 64%
    02:00 +28°C° 0 mm 1 mps 741 mmHg 65%
    03:00 +27°C° 0 mm 1 mps 740 mmHg 65%
    04:00 +27°C° 0 mm 1 mps 740 mmHg 66%
    05:00 +27°C° 0 mm 1 mps 741 mmHg 67%
    06:00 +27°C° 0 mm 1 mps 741 mmHg 69%
    07:00 +27°C° 0 mm 2 mps 742 mmHg 70%
    08:00 +29°C° 0 mm 2 mps 742 mmHg 64%
    09:00 +31°C° 0 mm 2 mps 743 mmHg 58%
    10:00 +34°C° 0 mm 2 mps 743 mmHg 52%
    11:00 +34°C° 0 mm 1 mps 743 mmHg 49%
    12:00 +35°C° 0 mm 1 mps 742 mmHg 46%
    13:00 +36°C° 0 mm 1 mps 741 mmHg 43%
    14:00 +35°C° 0.2 mm 1 mps 741 mmHg 45%
    15:00 +35°C° 0.2 mm 1 mps 740 mmHg 46%
    16:00 +34°C° 0.2 mm 1 mps 740 mmHg 48%
    17:00 +33°C° 0.3 mm 1 mps 740 mmHg 53%
    18:00 +31°C° 0.3 mm 1 mps 740 mmHg 59%
    19:00 +30°C° 0.3 mm 1 mps 741 mmHg 65%
    20:00 +29°C° 0.7 mm 2 mps 741 mmHg 69%
    21:00 +28°C° 0.7 mm 2 mps 742 mmHg 73%
    22:00 +27°C° 0.7 mm 2 mps 742 mmHg 77%
    23:00 +27°C° 0.1 mm 2 mps 742 mmHg 76%

    24 January, Friday

    Time Temperature Precipitation Wind Pressure Humidity
    00:00 +27°C° 0.1 mm 1 mps 742 mmHg 76%
    01:00 +27°C° 0.1 mm 1 mps 742 mmHg 76%
    02:00 +27°C° 0 mm 1 mps 741 mmHg 75%
    03:00 +26°C° 0 mm 1 mps 741 mmHg 74%
    04:00 +26°C° 0 mm 1 mps 741 mmHg 74%
    05:00 +26°C° 0 mm 1 mps 742 mmHg 74%
    06:00 +26°C° 0 mm 1 mps 743 mmHg 75%
    07:00 +26°C° 0 mm 1 mps 743 mmHg 75%
    08:00 +29°C° 0 mm 1 mps 744 mmHg 68%
    09:00 +31°C° 0 mm 1 mps 744 mmHg 61%
    10:00 +33°C° 0 mm 1 mps 745 mmHg 54%
    11:00 +34°C° 0 mm 1 mps 744 mmHg 51%
    12:00 +36°C° 0 mm 2 mps 743 mmHg 49%
    13:00 +36°C° 0 mm 2 mps 742 mmHg 46%
    14:00 +36°C° 0.1 mm 2 mps 742 mmHg 47%
    15:00 +35°C° 0.1 mm 2 mps 741 mmHg 48%
    16:00 +35°C° 0.1 mm 2 mps 740 mmHg 50%
    17:00 +34°C° 0 mm 2 mps 741 mmHg 53%
    18:00 +31°C° 0 mm 2 mps 741 mmHg 57%
    19:00 +30°C° 0 mm 2 mps 742 mmHg 61%
    20:00 +30°C° 0 mm 1 mps 742 mmHg 62%
    21:00 +29°C° 0 mm 1 mps 743 mmHg 62%
    22:00 +29°C° 0 mm 1 mps 743 mmHg 63%
    23:00 +28°C° 0 mm 1 mps 743 mmHg 64%

    25 January, Saturday

    Time Temperature Precipitation Wind Pressure Humidity
    00:00 +27°C° 0 mm 1 mps 743 mmHg 65%
    01:00 +27°C° 0 mm 1 mps 743 mmHg 66%
    02:00 +26°C° 0 mm 1 mps 743 mmHg 67%
    03:00 +26°C° 0 mm 1 mps 743 mmHg 68%
    04:00 +25°C° 0 mm 1 mps 743 mmHg 69%
    05:00 +26°C° 0 mm 1 mps 743 mmHg 68%
    06:00 +26°C° 0 mm 1 mps 744 mmHg 67%
    07:00 +26°C° 0 mm 1 mps 745 mmHg 65%
    08:00 +28°C° 0 mm 2 mps 745 mmHg 59%
    09:00 +30°C° 0 mm 2 mps 745 mmHg 52%
    10:00 +33°C° 0 mm 3 mps 745 mmHg 46%
    11:00 +34°C° 0 mm 3 mps 745 mmHg 43%
    12:00 +35°C° 0 mm 3 mps 744 mmHg 40%
    13:00 +36°C° 0 mm 3 mps 743 mmHg 37%
    14:00 +36°C° 0 mm 3 mps 743 mmHg 38%
    15:00 +36°C° 0 mm 3 mps 742 mmHg 39%
    16:00 +36°C° 0 mm 3 mps 741 mmHg 40%
    17:00 +34°C° 0 mm 2 mps 742 mmHg 44%
    18:00 +31°C° 0 mm 2 mps 742 mmHg 49%
    19:00 +30°C° 0 mm 1 mps 743 mmHg 54%
    20:00 +29°C° 0 mm 1 mps 743 mmHg 55%
    21:00 +29°C° 0 mm 1 mps 744 mmHg 57%
    22:00 +29°C° 0 mm 1 mps 744 mmHg 59%
    23:00 +28°C° 0 mm 1 mps 744 mmHg 60%

    26 January, Sunday

    Time Temperature Precipitation Wind Pressure Humidity
    00:00 +28°C° 0 mm 1 mps 743 mmHg 61%
    01:00 +27°C° 0 mm 1 mps 743 mmHg 62%
    02:00 +27°C° 0 mm 1 mps 743 mmHg 64%
    03:00 +26°C° 0 mm 1 mps 743 mmHg 66%
    04:00 +26°C° 0 mm 2 mps 743 mmHg 67%
    05:00 +26°C° 0 mm 1 mps 743 mmHg 66%
    06:00 +26°C° 0 mm 1 mps 744 mmHg 65%
    07:00 +27°C° 0 mm 1 mps 744 mmHg 64%
    08:00 +29°C° 0 mm 2 mps 745 mmHg 59%
    09:00 +31°C° 0 mm 2 mps 745 mmHg 53%
    10:00 +34°C° 0 mm 3 mps 745 mmHg 47%
    11:00 +35°C° 0 mm 3 mps 744 mmHg 45%
    12:00 +35°C° 0 mm 3 mps 744 mmHg 43%
    13:00 +36°C° 0 mm 3 mps 743 mmHg 40%
    14:00 +36°C° 0.1 mm 3 mps 742 mmHg 40%
    15:00 +36°C° 0.1 mm 3 mps 742 mmHg 40%
    16:00 +36°C° 0.1 mm 3 mps 741 mmHg 40%
    17:00 +34°C° 0 mm 2 mps 741 mmHg 46%
    18:00 +31°C° 0 mm 2 mps 742 mmHg 52%
    19:00 +30°C° 0 mm 1 mps 742 mmHg 58%
    20:00 +29°C° 0 mm 1 mps 743 mmHg 60%
    21:00 +29°C° 0 mm 1 mps 743 mmHg 61%
    22:00 +28°C° 0 mm 1 mps 743 mmHg 63%
    23:00 +28°C° 0 mm 1 mps 743 mmHg 64%
    Show more